Total_Precipitation_Accumulation
2.18 2.41 3.19 4.00 4.45 3.34 2.38 1.89 1.56 1.35 1.09 0.83 0.66 0.66 0.96 1.40 1.76 1.77 1.64 1.49 0.92 0.79 0.81 1.13 1.38 1.32 1.20 1.09 1.06 1.06 1.03 0.99 0.98 0.93 0.84 0.76 0.66 0.56 0.52 0.48 0.47 0.49 0.53 0.58 0.59 0.62 0.62 0.60 0.64
1.91 2.60 3.74 4.52 3.74 2.59 2.20 1.73 1.48 1.16 0.86 0.65 0.56 0.49 0.61 0.50 0.53 0.95 1.79 1.73 0.93 0.72 0.79 1.07 1.40 1.34 1.24 1.18 1.18 1.16 1.05 0.97 0.97 0.90 0.83 0.78 0.72 0.63 0.62 0.62 0.52 0.54 0.55 0.57 0.56 0.56 0.59 0.63 0.70
2.21 3.06 4.18 4.19 2.90 2.23 2.15 1.60 1.18 0.80 0.58 0.59 0.59 0.49 0.57 0.71 0.84 1.30 1.68 1.23 0.84 0.74 0.79 1.18 1.50 1.35 1.25 1.25 1.34 1.30 1.19 1.07 0.97 0.90 0.87 0.82 0.77 0.75 0.80 0.70 0.64 0.65 0.64 0.64 0.66 0.67 0.69 0.74 0.80
2.45 3.48 3.78 3.14 2.39 1.83 1.57 1.30 0.97 0.80 0.56 0.36 0.44 0.58 0.53 0.77 0.96 1.18 1.14 0.83 0.63 0.63 0.68 1.06 1.50 1.36 1.22 1.21 1.35 1.28 1.15 1.14 1.06 1.00 0.96 0.92 0.89 0.92 0.89 0.81 0.78 0.74 0.73 0.71 0.74 0.76 0.82 0.86 0.84
2.69 3.45 3.37 2.94 2.21 1.90 1.42 1.11 0.93 0.90 0.70 0.46 0.41 0.63 0.69 1.03 1.04 1.05 0.99 0.83 0.65 0.63 0.63 0.87 1.31 1.28 1.15 1.14 1.23 1.20 1.15 1.17 1.06 0.99 0.98 0.99 0.98 1.02 1.07 1.02 0.92 0.88 0.86 0.83 0.82 0.80 0.79 0.83 0.91
3.07 3.15 3.17 2.95 2.38 2.11 1.66 1.22 0.88 0.80 0.67 0.53 0.47 0.67 0.92 1.30 1.19 1.14 1.02 0.98 0.84 0.72 0.61 0.73 1.09 1.15 1.09 1.12 1.17 1.17 1.12 1.05 0.92 0.93 0.97 0.99 1.00 1.07 1.13 1.10 1.01 0.99 0.96 0.97 0.96 0.94 0.88 0.88 0.91
2.84 2.80 2.51 2.12 2.25 2.38 1.70 1.08 1.01 0.94 0.86 0.75 0.52 0.74 1.04 1.36 1.19 0.99 0.99 1.10 1.18 1.07 0.89 0.81 0.84 0.89 0.98 1.06 1.10 1.24 1.28 1.07 0.91 0.87 0.88 0.88 0.88 0.92 0.99 1.02 0.98 0.96 0.98 1.00 1.00 0.99 0.97 0.98 0.96
2.32 2.36 2.13 2.05 2.28 2.43 1.46 0.96 0.80 0.77 0.78 0.52 0.42 0.66 0.84 1.01 1.06 1.03 1.00 1.11 1.11 1.08 1.04 0.97 0.95 0.91 0.90 0.93 1.12 1.39 1.50 1.31 1.04 0.92 0.86 0.87 0.83 0.81 0.89 0.89 0.95 0.99 1.05 1.09 1.11 1.09 1.04 1.11 1.13
2.00 2.31 2.34 2.27 2.20 1.92 1.16 0.88 0.68 0.48 0.50 0.45 0.34 0.49 0.62 0.65 0.79 0.97 1.03 1.09 1.05 1.00 1.00 0.94 0.95 0.96 1.06 1.07 1.16 1.42 1.58 1.52 1.15 0.95 0.92 0.83 0.69 0.81 0.87 0.81 1.03 1.13 1.21 1.22 1.25 1.20 1.12 1.14 1.15
2.05 2.24 2.11 1.72 1.52 1.24 0.95 0.81 0.65 0.66 0.74 0.61 0.44 0.52 0.62 0.66 0.71 0.81 0.88 0.85 0.84 0.85 0.84 0.82 0.83 0.80 0.84 0.90 1.23 1.45 1.35 1.42 1.14 1.08 1.00 0.92 0.95 0.99 0.85 0.80 1.04 1.18 1.28 1.26 1.24 1.24 1.17 1.03 0.88
1.74 1.84 1.52 1.32 1.13 0.91 0.83 0.77 0.59 0.70 0.85 0.63 0.45 0.51 0.61 0.68 0.75 0.74 0.80 0.77 0.71 0.72 0.64 0.57 0.61 0.59 0.61 0.72 0.89 1.17 1.42 1.46 1.42 1.36 1.26 1.19 1.10 0.94 0.83 0.82 0.86 0.97 1.07 1.02 1.10 1.11 1.00 0.94 0.87
1.52 1.44 1.25 1.13 0.84 0.88 0.86 0.71 0.62 0.59 0.61 0.46 0.42 0.46 0.54 0.68 0.79 0.74 0.77 0.80 0.75 0.76 0.74 0.59 0.50 0.52 0.52 0.55 0.68 0.92 1.13 1.27 1.28 1.20 1.11 1.29 1.23 1.01 0.90 0.97 0.98 0.98 1.05 1.20 1.24 1.19 1.10 0.99 0.88
1.40 1.45 1.17 0.96 0.84 0.89 0.82 0.74 0.63 0.63 0.53 0.41 0.42 0.52 0.64 0.75 0.83 0.84 0.81 0.82 0.81 0.80 0.83 0.72 0.53 0.46 0.48 0.51 0.56 0.63 0.86 1.01 1.01 1.14 1.11 1.15 1.14 1.02 0.93 0.94 1.08 1.06 1.09 1.25 1.36 1.21 1.15 1.16 1.08
1.22 1.18 1.13 0.97 0.90 0.92 0.91 0.73 0.63 0.75 0.65 0.54 0.58 0.65 0.72 0.78 0.80 0.80 0.76 0.73 0.71 0.70 0.72 0.68 0.58 0.55 0.51 0.48 0.48 0.52 0.56 0.72 0.74 0.77 0.76 0.95 1.07 1.05 1.07 0.98 1.05 1.20 1.25 1.25 1.26 1.23 1.16 1.12 1.14
1.02 1.09 1.22 1.12 1.07 1.04 0.91 0.94 0.73 0.75 0.75 0.63 0.61 0.62 0.71 0.72 0.72 0.72 0.68 0.61 0.58 0.58 0.58 0.60 0.62 0.64 0.62 0.61 0.59 0.56 0.56 0.59 0.66 0.73 0.75 0.88 0.99 1.06 1.07 0.96 1.00 1.15 1.34 1.32 1.26 1.20 1.21 1.07 1.04
1.16 1.43 1.68 1.37 1.16 1.14 1.04 1.11 0.83 0.83 0.78 0.66 0.60 0.56 0.55 0.52 0.53 0.57 0.55 0.49 0.48 0.45 0.43 0.49 0.52 0.56 0.61 0.65 0.68 0.63 0.66 0.68 0.66 0.71 0.71 0.75 0.90 1.06 1.15 1.08 1.03 1.19 1.38 1.53 1.57 1.41 1.35 1.25 1.18
1.48 1.57 1.50 1.40 1.11 1.11 1.03 1.04 0.90 0.78 0.72 0.60 0.54 0.55 0.47 0.41 0.40 0.42 0.41 0.38 0.35 0.34 0.31 0.34 0.40 0.45 0.51 0.58 0.67 0.68 0.70 0.84 0.92 0.81 0.70 0.75 0.89 1.00 1.20 1.28 1.23 1.27 1.43 1.49 1.49 1.51 1.42 1.40 1.34
1.19 1.19 1.18 1.24 1.03 0.94 0.91 0.85 0.87 0.73 0.57 0.49 0.43 0.43 0.41 0.37 0.33 0.33 0.32 0.30 0.30 0.29 0.27 0.29 0.35 0.36 0.38 0.48 0.64 0.74 0.71 0.81 1.03 1.06 1.05 1.09 1.15 1.22 1.37 1.46 1.44 1.44 1.51 1.49 1.61 1.79 1.62 1.45 1.45
0.88 0.89 0.93 0.85 0.72 0.81 0.81 0.76 0.80 0.74 0.59 0.45 0.36 0.34 0.32 0.31 0.33 0.30 0.27 0.25 0.24 0.22 0.22 0.26 0.30 0.33 0.35 0.43 0.54 0.63 0.73 0.91 1.12 1.18 1.25 1.39 1.41 1.43 1.56 1.66 1.69 1.63 1.55 1.61 1.78 2.14 2.03 1.67 1.51
0.81 0.79 0.83 0.74 0.63 0.66 0.74 0.78 0.75 0.67 0.59 0.46 0.36 0.29 0.22 0.24 0.25 0.22 0.21 0.20 0.18 0.14 0.14 0.19 0.28 0.37 0.43 0.49 0.62 0.77 1.01 1.12 1.26 1.42 1.41 1.44 1.49 1.53 1.60 1.81 1.92 1.86 1.84 1.94 1.97 2.20 2.35 2.08 1.88
0.79 0.72 0.66 0.69 0.66 0.63 0.68 0.87 0.81 0.72 0.58 0.46 0.37 0.28 0.20 0.22 0.21 0.16 0.15 0.16 0.15 0.11 0.13 0.19 0.33 0.52 0.73 0.84 1.06 1.33 1.59 1.67 1.60 1.59 1.64 1.63 1.66 1.72 1.70 1.81 2.01 1.98 1.94 1.99 2.17 2.46 2.75 2.66 2.40
0.78 0.55 0.47 0.58 0.69 0.77 0.64 0.87 0.76 0.68 0.62 0.47 0.39 0.33 0.25 0.25 0.26 0.20 0.19 0.18 0.17 0.17 0.25 0.41 0.64 0.94 1.19 1.34 1.53 1.74 1.85 1.89 1.82 1.83 1.81 1.80 1.71 1.65 1.65 1.78 1.98 2.13 2.21 2.26 2.32 2.33 2.68 2.90 2.72
0.62 0.50 0.48 0.57 0.67 0.67 0.56 0.65 0.61 0.55 0.62 0.54 0.49 0.42 0.37 0.34 0.29 0.29 0.32 0.32 0.37 0.46 0.64 0.92 1.17 1.41 1.56 1.61 1.70 1.90 2.05 2.20 2.22 2.10 1.95 1.83 1.80 1.74 1.66 1.71 1.78 1.83 1.92 2.04 2.16 2.24 2.47 2.63 2.76
0.51 0.57 0.60 0.61 0.68 0.75 0.52 0.49 0.57 0.49 0.50 0.54 0.55 0.47 0.41 0.38 0.37 0.45 0.57 0.69 0.80 0.89 1.07 1.27 1.41 1.55 1.55 1.55 1.60 1.73 1.92 2.08 2.10 2.11 2.08 1.94 1.81 1.72 1.63 1.57 1.66 1.69 1.70 1.84 1.95 2.04 2.28 2.46 2.57
0.56 0.69 0.84 0.85 0.83 0.72 0.44 0.49 0.52 0.37 0.36 0.44 0.48 0.47 0.43 0.40 0.47 0.66 0.82 0.95 1.06 1.16 1.26 1.28 1.28 1.33 1.34 1.35 1.39 1.46 1.53 1.55 1.61 1.71 1.64 1.51 1.39 1.35 1.34 1.26 1.32 1.45 1.51 1.70 1.77 1.71 1.76 1.95 2.16
0.51 0.52 0.73 0.83 0.75 0.65 0.49 0.63 0.57 0.39 0.34 0.33 0.37 0.44 0.51 0.63 0.73 0.85 0.94 1.04 1.09 1.22 1.26 1.21 1.18 1.17 1.11 1.05 1.09 1.11 1.15 1.20 1.22 1.23 1.18 1.10 1.06 1.02 0.99 0.98 1.00 1.07 1.16 1.38 1.59 1.57 1.58 1.65 1.75
0.43 0.42 0.44 0.60 0.58 0.60 0.54 0.64 0.58 0.38 0.32 0.31 0.33 0.41 0.55 0.76 1.01 1.16 1.15 1.05 0.97 1.03 1.09 1.07 1.02 0.97 0.89 0.83 0.86 0.89 0.95 0.98 0.95 0.92 0.87 0.85 0.79 0.79 0.76 0.79 0.88 0.94 0.94 1.04 1.17 1.35 1.42 1.49 1.57
0.33 0.36 0.45 0.66 0.76 0.76 0.65 0.70 0.65 0.47 0.38 0.35 0.39 0.49 0.67 0.88 1.08 1.34 1.47 1.34 1.06 0.89 0.91 0.87 0.83 0.85 0.83 0.79 0.81 0.81 0.73 0.67 0.67 0.70 0.64 0.63 0.67 0.71 0.70 0.68 0.69 0.75 0.78 0.87 0.98 1.04 1.15 1.23 1.38
0.34 0.38 0.48 0.63 0.63 0.83 1.06 1.04 0.77 0.65 0.56 0.53 0.58 0.63 0.69 0.98 1.26 1.39 1.43 1.31 1.12 0.85 0.77 0.76 0.72 0.75 0.81 0.73 0.75 0.75 0.65 0.52 0.49 0.48 0.45 0.45 0.49 0.55 0.56 0.59 0.65 0.65 0.67 0.69 0.71 0.77 0.83 0.89 0.99
0.31 0.38 0.51 0.78 0.79 0.75 0.92 0.98 0.63 0.65 0.74 0.67 0.72 0.79 0.80 0.88 0.93 0.94 1.04 1.05 0.98 0.84 0.77 0.82 0.86 0.85 0.77 0.70 0.65 0.62 0.54 0.47 0.46 0.43 0.38 0.40 0.45 0.47 0.49 0.54 0.58 0.58 0.64 0.66 0.66 0.66 0.69 0.78 0.85